カタログに戻る

IABS R/B

運用中GEO
NORAD 22011·ROCKET BODY·🇺🇸 United States

打ち上げ Jul 2, 1992 から Cape Canaveral Space Force Station

Loading…

TLE

最新Source: Space-Track

元期: Sep 14, 2026, 10:24 UTC

1 22011U 92037C   26257.43375071  .00000051  00000-0  00000-0 0  9995
2 22011  11.9592 333.3561 0012562 101.5493 258.6051  1.01645929 27214

AllMySatでIABS R/Bをリアルタイム追跡

Download on the App Store